Weather History for Frankfort, MI

Change the Weather History Date:

Friday, July 12, 2013

  Actual Average (KTVC) Record (KTVC)
Temperature  
Mean Temperature 62 °F 69 °F  
Max Temperature 76 °F 81 °F 95 °F (1987)
Min Temperature 49 °F 58 °F 41 °F (1965)
Degree Days  
Heating Degree Days 2 1  
Month to date heating degree days 13  
Since 1 June heating degree days 125  
Since 1 July heating degree days 13  
Cooling Degree Days 0 5  
Month to date cooling degree days 60  
Year to date cooling degree days 161  
Since 1 June cooling degree days 141  
Growing Degree Days 12 (Base 50)    
Moisture  
Dew Point 53 °F    
Average Humidity 71    
Maximum Humidity 94    
Minimum Humidity 41    
Precipitation  
Precipitation 0.00 in 0.09 in 0.92 in (1992)
Month to date precipitation 1.13  
Year to date precipitation 15.84  
Sea Level Pressure  
Sea Level Pressure 30.14 in    
Wind  
Wind Speed 2 mph (West)    
Max Wind Speed 10 mph    
Max Gust Speed -    
Visibility 10 miles    
Events      
T = Trace of Precipitation, MM = Missing Value Source: NWS Daily Summary

Daily Weather History Graph

Daily Weather History Graph

Search for Another Location

Airport:

Trip Planner

Search our weather history database for the weather conditions in past years. The results will help you decide how hot, cold, wet, or windy it might be!

Date:

Astronomy

Jul. 12, 2013 Rise Set
Actual Time 6:11 AM EDT 9:29 PM EDT
Civil Twilight 5:35 AM EDT 10:04 PM EDT
Nautical Twilight 4:48 AM EDT 10:51 PM EDT
Astronomical Twilight 3:50 AM EDT 11:48 PM EDT
Moon 10:40 AM EDT (7/12) 11:25 PM EDT (7/12)
Length of Visible Light 16h 29m
Length of Day
15h 17m
Waxing Crescent, 17% of the Moon is Illuminated
Jul 12
Waxing Crescent
Jul 15
First Quarter
Jul 22
Full
Jul 29
Last Quarter
Aug 6
New

Hourly Weather History & Observations

Time (EDT) Temp. Dew Point Humidity Pressure Visibility Wind Dir Wind Speed Gust Speed Precip Events Conditions
12:15 AM 53.6 °F 51.1 °F 91% 30.10 in 10.0 mi Calm Calm - N/A   Clear
12:35 AM 52.5 °F 50.2 °F 92% 30.10 in 10.0 mi Calm Calm - N/A   Clear
12:55 AM 53.1 °F 50.7 °F 92% 30.10 in 10.0 mi Calm Calm - N/A   Clear
1:16 AM 52.2 °F 49.8 °F 92% 30.10 in 10.0 mi Calm Calm - N/A   Clear
1:36 AM 52.7 °F 50.4 °F 92% 30.10 in 10.0 mi Calm Calm - N/A   Clear
1:56 AM 52.2 °F 50.2 °F 93% 30.11 in 10.0 mi Calm Calm - N/A   Clear
2:16 AM 50.9 °F 48.7 °F 92% 30.11 in 10.0 mi Calm Calm - N/A   Clear
2:36 AM 50.9 °F 48.6 °F 92% 30.12 in 10.0 mi Calm Calm - N/A   Clear
2:56 AM 50.2 °F 48.2 °F 93% 30.12 in 10.0 mi Calm Calm - N/A   Clear
3:16 AM 50.4 °F 48.6 °F 94% 30.13 in 10.0 mi Calm Calm - N/A   Clear
3:36 AM 50.4 °F 48.6 °F 94% 30.13 in 10.0 mi Calm Calm - N/A   Clear
3:56 AM 49.5 °F 47.5 °F 93% 30.13 in 10.0 mi Calm Calm - N/A   Clear
4:17 AM 49.8 °F 48.0 °F 94% 30.13 in 10.0 mi Calm Calm - N/A   Clear
4:37 AM 49.1 °F 47.3 °F 93% 30.13 in 10.0 mi Calm Calm - N/A   Clear
4:57 AM 49.3 °F 47.7 °F 94% 30.13 in 10.0 mi Calm Calm - N/A   Clear
5:12 AM 49.8 °F 48.2 °F 94% 30.14 in 10.0 mi Calm Calm - N/A   Clear
5:32 AM 49.6 °F 47.8 °F 94% 30.14 in 10.0 mi Calm Calm - N/A   Clear
5:52 AM 49.3 °F 47.3 °F 93% 30.14 in 10.0 mi Calm Calm - N/A   Clear
6:12 AM 50.2 °F 48.4 °F 94% 30.15 in 10.0 mi Calm Calm - N/A   Clear
6:32 AM 50.5 °F 48.0 °F 91% 30.16 in 10.0 mi Calm Calm - N/A   Clear
6:52 AM 50.9 °F 48.7 °F 92% 30.16 in 10.0 mi Calm Calm - N/A   Clear
7:12 AM 50.5 °F 48.4 °F 92% 30.16 in 10.0 mi Calm Calm - N/A   Clear
7:32 AM 54.3 °F 51.8 °F 91% 30.16 in 10.0 mi Calm Calm - N/A   Clear
7:53 AM 58.5 °F 54.0 °F 85% 30.16 in 10.0 mi Calm Calm - N/A   Clear
8:13 AM 61.3 °F 53.8 °F 76% 30.17 in 10.0 mi Calm Calm - N/A   Clear
8:33 AM 63.3 °F 53.6 °F 71% 30.17 in 10.0 mi Calm Calm - N/A   Clear
8:53 AM 64.8 °F 54.7 °F 70% 30.18 in 10.0 mi Calm Calm - N/A   Clear
9:13 AM 67.5 °F 55.4 °F 65% 30.19 in 10.0 mi Calm Calm - N/A   Clear
9:33 AM 68.4 °F 55.9 °F 64% 30.19 in 10.0 mi West 3.5 mph - N/A   Clear
9:53 AM 69.3 °F 56.8 °F 65% 30.18 in 10.0 mi West 4.6 mph - N/A   Clear
10:13 AM 69.8 °F 56.7 °F 63% 30.19 in 10.0 mi WSW 3.5 mph - N/A   Clear
10:34 AM 70.0 °F 57.6 °F 65% 30.18 in 10.0 mi West 3.5 mph - N/A   Clear
10:54 AM 71.6 °F 58.6 °F 64% 30.18 in 10.0 mi West 5.8 mph - N/A   Clear
11:14 AM 72.9 °F 58.1 °F 60% 30.18 in 10.0 mi West 5.8 mph - N/A   Clear
11:34 AM 72.9 °F 56.7 °F 57% 30.17 in 10.0 mi West 6.9 mph - N/A   Clear
11:54 AM 74.1 °F 56.8 °F 55% 30.18 in 10.0 mi West 4.6 mph - N/A   Clear
12:14 PM 74.3 °F 57.4 °F 55% 30.17 in 10.0 mi WSW 5.8 mph - N/A   Clear
12:34 PM 74.1 °F 56.5 °F 54% 30.18 in 10.0 mi WSW 8.1 mph - N/A   Clear
12:54 PM 74.5 °F 56.7 °F 54% 30.17 in 10.0 mi WSW 5.8 mph - N/A   Clear
1:14 PM 74.3 °F 57.0 °F 55% 30.17 in 10.0 mi West 8.1 mph - N/A   Clear
1:35 PM 74.7 °F 57.0 °F 54% 30.16 in 10.0 mi West 4.6 mph - N/A   Clear
1:55 PM 75.2 °F 57.2 °F 53% 30.16 in 10.0 mi West 8.1 mph - N/A   Clear
2:15 PM 75.0 °F 57.4 °F 54% 30.15 in 10.0 mi West 6.9 mph - N/A   Clear
2:35 PM 73.9 °F 57.0 °F 55% 30.15 in 10.0 mi West 6.9 mph - N/A   Clear
2:55 PM 74.3 °F 57.4 °F 55% 30.15 in 10.0 mi West 8.1 mph - N/A   Clear
3:15 PM 73.8 °F 57.4 °F 56% 30.15 in 10.0 mi West 8.1 mph - N/A   Clear
3:35 PM 73.8 °F 57.7 °F 57% 30.15 in 10.0 mi West 10.4 mph - N/A   Clear
3:55 PM 72.7 °F 57.7 °F 59% 30.15 in 10.0 mi West 8.1 mph - N/A   Clear
4:15 PM 73.2 °F 57.9 °F 59% 30.14 in 10.0 mi West 3.5 mph - N/A   Clear
4:36 PM 75.7 °F 56.8 °F 52% 30.14 in 10.0 mi WSW 3.5 mph - N/A   Clear
4:56 PM 76.1 °F 57.0 °F 51% 30.14 in 10.0 mi WSW 5.8 mph - N/A   Clear
5:16 PM 76.5 °F 56.7 °F 50% 30.13 in 10.0 mi WNW 4.6 mph - N/A   Clear
5:36 PM 76.8 °F 56.1 °F 49% 30.13 in 10.0 mi West 5.8 mph - N/A   Clear
5:56 PM 76.3 °F 53.1 °F 44% 30.12 in 10.0 mi West 5.8 mph - N/A   Clear
6:16 PM 76.6 °F 52.7 °F 43% 30.12 in 10.0 mi West 5.8 mph - N/A   Clear
6:36 PM 76.1 °F 51.3 °F 42% 30.12 in 10.0 mi West 5.8 mph - N/A   Clear
6:56 PM 75.9 °F 50.9 °F 41% 30.12 in 10.0 mi WNW 4.6 mph - N/A   Clear
7:16 PM 75.0 °F 51.1 °F 43% 30.12 in 10.0 mi West 3.5 mph - N/A   Clear
7:37 PM 75.2 °F 50.5 °F 42% 30.12 in 10.0 mi Calm Calm - N/A   Clear
7:52 PM 74.5 °F 53.1 °F 47% 30.12 in 10.0 mi Calm Calm - N/A   Clear
8:12 PM 74.1 °F 53.8 °F 49% 30.12 in 10.0 mi Calm Calm - N/A   Clear
8:32 PM 71.4 °F 56.3 °F 59% 30.12 in 10.0 mi Calm Calm - N/A   Clear
8:52 PM 70.3 °F 57.4 °F 63% 30.13 in 10.0 mi Calm Calm - N/A   Clear
9:12 PM 66.0 °F 56.8 °F 72% 30.12 in 10.0 mi Calm Calm - N/A   Clear
9:32 PM 64.0 °F 57.9 °F 80% 30.13 in 10.0 mi Calm Calm - N/A   Clear
9:52 PM 62.6 °F 56.7 °F 81% 30.14 in 10.0 mi Calm Calm - N/A   Clear
10:12 PM 60.1 °F 54.5 °F 82% 30.13 in 10.0 mi Calm Calm - N/A   Clear
10:33 PM 59.0 °F 54.0 °F 83% 30.14 in 10.0 mi Calm Calm - N/A   Clear
10:53 PM 58.6 °F 53.4 °F 83% 30.13 in 10.0 mi Calm Calm - N/A   Clear
11:13 PM 57.6 °F 53.8 °F 87% 30.13 in 10.0 mi Calm Calm - N/A   Clear
11:33 PM 57.0 °F 52.9 °F 86% 30.13 in 10.0 mi Calm Calm - N/A   Clear
11:53 PM 56.5 °F 52.2 °F 85% 30.12 in 10.0 mi Calm Calm - N/A   Clear